Clermont County, Batavia, OH

12:03 PM EST on December 11, 2019 (GMT -0500)
Clermont County, Batavia

Weather History for KI69 - October, 2019

Change the Weather History Date:

Tuesday, October 8, 2019

  Actual Average (WUND) Record (WUND)
Temperature  
Mean Temperature 58 °F -  
Max Temperature 70 °F - - (-1)
Min Temperature 45 °F - - (-1)
Degree Days  
Heating Degree Days 8    
Growing Degree Days 8 (Base 50)    
Moisture  
Dew Point 45 °F    
Average Humidity 72    
Maximum Humidity 100    
Minimum Humidity 32    
Precipitation  
Precipitation 0.10 in - - ()
Sea Level Pressure  
Sea Level Pressure 30.22 in    
Wind  
Wind Speed 2 mph (ENE)    
Max Wind Speed 13 mph    
Max Gust Speed 21 mph    
Visibility 6 miles    
Events Fog    
Averages and records for this station are not official NWS values.
T = Trace of Precipitation, MM = Missing Value Source: NWS Daily Summary

Daily Weather History Graph

Daily Weather History Graph

Search for Another Location

Airport or City:

Astronomy

Oct. 08, 2019 Rise Set
Actual Time 7:39 AM EDT 7:08 PM EDT
Civil Twilight 7:12 AM EDT 7:35 PM EDT
Nautical Twilight 6:41 AM EDT 8:06 PM EDT
Astronomical Twilight 6:10 AM EDT 8:37 PM EDT
Moon 5:04 PM EDT (10/8) 2:30 AM EDT (10/8)
Length of Visible Light 12h 23m
Length of Day
11h 29m
Waxing Gibbous, 77% of the Moon is Illuminated
Oct 8
Waxing Gibbous
Oct 13
Full
Oct 21
Last Quarter
Oct 27
New
Nov 4
First Quarter

Hourly Weather History & Observations

Time (EDT) Temp. Dew Point Humidity Pressure Visibility Wind Dir Wind Speed Gust Speed Precip Events Conditions
12:17 AM 49.3 °F 49.1 °F 99% 30.24 in 7.0 mi Calm Calm - N/A   Clear
12:35 AM 48.6 °F 48.2 °F 99% 30.24 in 10.0 mi Calm Calm - N/A   Clear
12:55 AM 47.7 °F 47.7 °F 100% 30.24 in 1.0 mi Calm Calm - N/A   Overcast
1:15 AM 47.3 °F 47.3 °F 100% 30.24 in 0.2 mi Calm Calm - N/A Fog Fog
1:38 AM 46.6 °F 46.6 °F 100% 30.24 in 0.5 mi Calm Calm - N/A Fog Fog
1:57 AM 46.6 °F 46.6 °F 100% 30.24 in 0.2 mi Calm Calm - N/A Fog Fog
2:15 AM 46.6 °F 46.6 °F 100% 30.24 in 0.2 mi Calm Calm - N/A Fog Fog
2:35 AM 46.4 °F 46.4 °F 100% 30.24 in 0.2 mi Calm Calm - 0.01 in Fog Fog
2:55 AM 46.0 °F 46.0 °F 100% 30.23 in 0.2 mi Calm Calm - 0.01 in Fog Fog
3:18 AM 46.4 °F 46.4 °F 100% 30.23 in 0.2 mi Calm Calm - N/A Fog Fog
3:36 AM 46.6 °F 46.6 °F 100% 30.23 in 0.2 mi Calm Calm - N/A Fog Fog
3:55 AM 47.3 °F 47.3 °F 100% 30.22 in 0.2 mi Calm Calm - N/A Fog Fog
3:56 AM 47.3 °F 47.3 °F 100% 30.22 in 0.2 mi Calm Calm - N/A Fog Fog
4:15 AM 47.5 °F 47.5 °F 100% 30.22 in 0.2 mi Calm Calm - N/A Fog Fog
4:35 AM 47.7 °F 47.7 °F 100% 30.23 in 0.2 mi Calm Calm - 0.01 in Fog Fog
4:58 AM 47.5 °F 47.5 °F 100% 30.23 in 0.2 mi Calm Calm - 0.01 in Fog Fog
5:16 AM 47.1 °F 47.1 °F 100% 30.23 in 0.2 mi Calm Calm - N/A Fog Fog
5:35 AM 46.9 °F 46.9 °F 100% 30.23 in 0.2 mi Calm Calm - N/A Fog Fog
5:55 AM 47.1 °F 47.1 °F 100% 30.24 in 0.2 mi Calm Calm - 0.01 in Fog Fog
5:56 AM 46.9 °F 46.9 °F 100% 30.24 in 0.2 mi Calm Calm - 0.01 in Fog Fog
6:15 AM 46.9 °F 46.9 °F 100% 30.24 in 0.2 mi Calm Calm - N/A Fog Fog
6:38 AM 46.4 °F 46.4 °F 100% 30.25 in 0.2 mi Calm Calm - N/A Fog Fog
6:56 AM 45.9 °F 45.9 °F 100% 30.25 in 0.2 mi Calm Calm - N/A Fog Fog
7:15 AM 45.5 °F 45.5 °F 100% 30.25 in 0.2 mi Calm Calm - N/A Fog Fog
7:35 AM 45.5 °F 45.5 °F 100% 30.25 in 0.2 mi Calm Calm - N/A Fog Fog
7:55 AM 45.5 °F 45.5 °F 100% 30.25 in 0.2 mi Calm Calm - N/A Fog Fog
8:18 AM 45.7 °F 45.7 °F 100% 30.25 in 0.2 mi Calm Calm - N/A Fog Fog
8:36 AM 46.4 °F 46.4 °F 100% 30.25 in 0.2 mi Calm Calm - N/A Fog Fog
8:55 AM 48.6 °F 48.6 °F 100% 30.26 in 3.0 mi Calm Calm - N/A   Scattered Clouds
9:15 AM 49.1 °F 49.1 °F 100% 30.26 in 5.0 mi Calm Calm - N/A   Clear
9:35 AM 50.4 °F 50.4 °F 100% 30.26 in 7.0 mi Calm Calm - N/A   Clear
9:40 AM 51.3 °F 51.1 °F 99% 30.26 in 10.0 mi Calm Calm - N/A   Clear
9:58 AM 52.9 °F 52.0 °F 97% 30.26 in 10.0 mi Calm Calm - 0.01 in   Clear
10:16 AM 54.9 °F 51.8 °F 89% 30.26 in 10.0 mi Calm Calm - N/A   Clear
10:35 AM 57.2 °F 51.8 °F 82% 30.26 in 10.0 mi ENE 3.5 mph - N/A   Clear
10:55 AM 58.8 °F 51.4 °F 76% 30.26 in 10.0 mi NE 4.6 mph - 0.01 in   Clear
11:19 AM 62.6 °F 48.4 °F 60% 30.25 in 10.0 mi ENE 6.9 mph - N/A   Clear
11:38 AM 63.5 °F 45.9 °F 53% 30.26 in 10.0 mi NE 8.1 mph - N/A   Clear
11:56 AM 64.4 °F 45.3 °F 50% 30.25 in 10.0 mi East 6.9 mph 16.1 mph N/A   Clear
12:15 PM 65.5 °F 44.8 °F 47% 30.24 in 10.0 mi ENE 8.1 mph - 0.01 in   Clear
12:35 PM 66.9 °F 44.4 °F 44% 30.24 in 10.0 mi ENE 8.1 mph - 0.01 in   Clear
12:59 PM 67.3 °F 42.8 °F 41% 30.23 in 10.0 mi NE 10.4 mph 18.4 mph 0.01 in   Clear
1:17 PM 67.3 °F 41.2 °F 39% 30.23 in 10.0 mi NE 11.5 mph 20.7 mph 0.01 in   Clear
1:36 PM 68.5 °F 40.8 °F 36% 30.22 in 10.0 mi East 9.2 mph 17.3 mph 0.01 in   Clear
1:55 PM 68.9 °F 40.6 °F 36% 30.21 in 10.0 mi East 10.4 mph 16.1 mph 0.01 in   Clear
2:15 PM 69.4 °F 41.5 °F 36% 30.20 in 10.0 mi East 10.4 mph - N/A   Clear
2:39 PM 69.6 °F 41.5 °F 36% 30.19 in 10.0 mi NE 5.8 mph - 0.01 in   Clear
2:57 PM 69.4 °F 39.9 °F 34% 30.19 in 10.0 mi NE 10.4 mph 17.3 mph 0.01 in   Clear
3:15 PM 70.0 °F 39.4 °F 33% 30.19 in 10.0 mi East 8.1 mph - N/A   Clear
3:35 PM 70.2 °F 39.6 °F 33% 30.18 in 10.0 mi East 12.7 mph - N/A   Clear
3:55 PM 69.8 °F 39.7 °F 33% 30.18 in 10.0 mi ENE 5.8 mph - 0.01 in   Clear
4:19 PM 70.2 °F 41.0 °F 35% 30.17 in 10.0 mi ENE 10.4 mph - N/A   Clear
4:37 PM 70.3 °F 42.3 °F 36% 30.16 in 10.0 mi ENE 6.9 mph - N/A   Clear
4:55 PM 70.0 °F 41.0 °F 35% 30.16 in 10.0 mi NNE 10.4 mph - N/A   Clear
5:15 PM 69.8 °F 40.5 °F 34% 30.16 in 10.0 mi Calm Calm - N/A   Clear
5:35 PM 69.3 °F 38.5 °F 32% 30.16 in 10.0 mi ENE 6.9 mph - N/A   Clear
5:59 PM 68.9 °F 39.6 °F 34% 30.16 in 10.0 mi ENE 4.6 mph - 0.01 in   Clear
6:17 PM 68.0 °F 39.4 °F 35% 30.16 in 10.0 mi ENE 5.8 mph - N/A   Clear
6:35 PM 66.7 °F 39.4 °F 37% 30.16 in 10.0 mi ENE 5.8 mph - N/A   Clear
6:55 PM 65.1 °F 40.5 °F 40% 30.17 in 10.0 mi ENE 3.5 mph - N/A   Clear
7:15 PM 63.5 °F 41.0 °F 44% 30.17 in 10.0 mi ENE 3.5 mph - N/A   Clear
7:39 PM 61.5 °F 42.1 °F 49% 30.17 in 10.0 mi Calm Calm - N/A   Clear
7:57 PM 60.1 °F 42.3 °F 52% 30.17 in 10.0 mi Calm Calm - N/A   Clear
8:15 PM 59.7 °F 42.3 °F 52% 30.18 in 10.0 mi Calm Calm - N/A   Clear
8:35 PM 59.9 °F 42.1 °F 52% 30.18 in 10.0 mi Calm Calm - N/A   Clear
8:56 PM 58.5 °F 42.8 °F 56% 30.19 in 10.0 mi Calm Calm - N/A   Clear
9:19 PM 57.9 °F 42.6 °F 57% 30.18 in 10.0 mi Calm Calm - N/A   Clear
9:37 PM 56.5 °F 42.4 °F 59% 30.18 in 10.0 mi Calm Calm - N/A   Clear
9:55 PM 55.8 °F 43.2 °F 63% 30.18 in 10.0 mi Calm Calm - N/A   Clear
10:15 PM 56.8 °F 43.3 °F 61% 30.18 in 10.0 mi Calm Calm - N/A   Clear
10:35 PM 54.3 °F 44.8 °F 70% 30.19 in 10.0 mi Calm Calm - N/A   Clear
10:59 PM 53.6 °F 45.5 °F 74% 30.19 in 10.0 mi Calm Calm - N/A   Clear
11:17 PM 53.8 °F 45.5 °F 74% 30.18 in 10.0 mi Calm Calm - N/A   Clear
11:35 PM 54.1 °F 45.0 °F 71% 30.17 in 10.0 mi Calm Calm - N/A   Clear
11:55 PM 54.1 °F 45.7 °F 73% 30.17 in 10.0 mi Calm Calm - N/A   Clear